Year,Month,Day,Hour,Minute,Value (Times are PST for temperature in C)
2012,08,14,00,00,16.80
2012,08,14,00,01,16.80
2012,08,14,00,02,16.80
2012,08,14,00,03,16.80
2012,08,14,00,04,16.80
2012,08,14,00,05,16.80
2012,08,14,00,06,16.80
2012,08,14,00,07,16.80
2012,08,14,00,08,16.80
2012,08,14,00,09,16.80
2012,08,14,00,10,16.80
2012,08,14,00,11,16.80
2012,08,14,00,12,16.80
2012,08,14,00,13,16.70
2012,08,14,00,14,16.70
2012,08,14,00,15,16.70
2012,08,14,00,16,16.70
2012,08,14,00,17,16.70
2012,08,14,00,18,16.70
2012,08,14,00,19,16.70
2012,08,14,00,20,16.70
2012,08,14,00,21,16.70
2012,08,14,00,22,16.70
2012,08,14,00,23,16.60
2012,08,14,00,24,16.60
2012,08,14,00,25,16.60
2012,08,14,00,26,16.50
2012,08,14,00,27,16.50
2012,08,14,00,28,16.40
2012,08,14,00,29,16.40
2012,08,14,00,30,16.40
2012,08,14,00,31,16.40
2012,08,14,00,32,16.30
2012,08,14,00,33,16.30
2012,08,14,00,34,16.30
2012,08,14,00,35,16.30
2012,08,14,00,36,16.30
2012,08,14,00,37,16.30
2012,08,14,00,38,16.30
2012,08,14,00,39,16.30
2012,08,14,00,40,16.30
2012,08,14,00,41,16.30
2012,08,14,00,42,16.20
2012,08,14,00,43,16.20
2012,08,14,00,44,16.20
2012,08,14,00,45,16.20
2012,08,14,00,46,16.20
2012,08,14,00,47,16.20
2012,08,14,00,48,16.20
2012,08,14,00,49,16.20
2012,08,14,00,50,16.20
2012,08,14,00,51,16.20
2012,08,14,00,52,16.30
2012,08,14,00,53,16.30
2012,08,14,00,54,16.30
2012,08,14,00,55,16.30
2012,08,14,00,56,16.30
2012,08,14,00,57,16.30
2012,08,14,00,58,16.30
2012,08,14,00,59,16.30
2012,08,14,01,00,16.30
2012,08,14,01,01,16.30
2012,08,14,01,02,16.30
2012,08,14,01,03,16.30
2012,08,14,01,04,16.30
2012,08,14,01,05,16.30
2012,08,14,01,06,16.30
2012,08,14,01,07,16.30
2012,08,14,01,08,16.20
2012,08,14,01,09,16.20
2012,08,14,01,10,16.20
2012,08,14,01,11,16.20
2012,08,14,01,12,16.20
2012,08,14,01,13,16.20
2012,08,14,01,14,16.20
2012,08,14,01,15,16.20
2012,08,14,01,16,16.20
2012,08,14,01,17,16.20
2012,08,14,01,18,16.10
2012,08,14,01,19,16.10
2012,08,14,01,20,16.10
2012,08,14,01,21,16.10
2012,08,14,01,22,16.10
2012,08,14,01,23,16.10
2012,08,14,01,24,16.10
2012,08,14,01,25,16.10
2012,08,14,01,26,16.10
2012,08,14,01,27,16.10
2012,08,14,01,28,16.10
2012,08,14,01,29,16.10
2012,08,14,01,30,16.10
2012,08,14,01,31,16.10
2012,08,14,01,32,16.10
2012,08,14,01,33,16.10
2012,08,14,01,34,16.10
2012,08,14,01,35,16.10
2012,08,14,01,36,16.10
2012,08,14,01,37,16.10
2012,08,14,01,38,16.10
2012,08,14,01,39,16.10
2012,08,14,01,40,16.10
2012,08,14,01,41,16.00
2012,08,14,01,42,16.00
2012,08,14,01,43,16.00
2012,08,14,01,44,16.00
2012,08,14,01,45,16.00
2012,08,14,01,46,16.00
2012,08,14,01,47,16.00
2012,08,14,01,48,16.00
2012,08,14,01,49,16.00
2012,08,14,01,50,16.00
2012,08,14,01,51,16.00
2012,08,14,01,52,16.00
2012,08,14,01,53,16.00
2012,08,14,01,54,16.00
2012,08,14,01,55,16.10
2012,08,14,01,56,16.10
2012,08,14,01,57,16.10
2012,08,14,01,58,16.10
2012,08,14,01,59,16.10
2012,08,14,02,00,16.10
2012,08,14,02,01,16.10
2012,08,14,02,02,16.10
2012,08,14,02,03,16.10
2012,08,14,02,04,16.10
2012,08,14,02,05,16.10
2012,08,14,02,06,16.10
2012,08,14,02,07,16.10
2012,08,14,02,08,16.10
2012,08,14,02,09,16.10
2012,08,14,02,10,16.10
2012,08,14,02,11,16.10
2012,08,14,02,12,16.10
2012,08,14,02,13,16.10
2012,08,14,02,14,16.10
2012,08,14,02,15,16.10
2012,08,14,02,16,16.10
2012,08,14,02,17,16.10
2012,08,14,02,18,16.20
2012,08,14,02,19,16.20
2012,08,14,02,20,16.20
2012,08,14,02,21,16.20
2012,08,14,02,22,16.20
2012,08,14,02,23,16.20
2012,08,14,02,24,16.20
2012,08,14,02,25,16.20
2012,08,14,02,26,16.20
2012,08,14,02,27,16.20
2012,08,14,02,28,16.20
2012,08,14,02,29,16.20
2012,08,14,02,30,16.20
2012,08,14,02,31,16.20
2012,08,14,02,32,16.20
2012,08,14,02,33,16.20
2012,08,14,02,34,16.20
2012,08,14,02,35,16.20
2012,08,14,02,36,16.20
2012,08,14,02,37,16.20
2012,08,14,02,38,16.10
2012,08,14,02,39,16.10
2012,08,14,02,40,16.10
2012,08,14,02,41,16.00
2012,08,14,02,42,16.00
2012,08,14,02,43,15.90
2012,08,14,02,44,15.90
2012,08,14,02,45,15.90
2012,08,14,02,46,15.80
2012,08,14,02,47,15.80
2012,08,14,02,48,15.80
2012,08,14,02,49,15.80
2012,08,14,02,50,15.70
2012,08,14,02,51,15.70
2012,08,14,02,52,15.70
2012,08,14,02,53,15.70
2012,08,14,02,54,15.70
2012,08,14,02,55,15.60
2012,08,14,02,56,15.60
2012,08,14,02,57,15.60
2012,08,14,02,58,15.60
2012,08,14,02,59,15.60
2012,08,14,03,00,15.50
2012,08,14,03,01,15.50
2012,08,14,03,02,15.50
2012,08,14,03,03,15.40
2012,08,14,03,04,15.40
2012,08,14,03,05,15.40
2012,08,14,03,06,15.40
2012,08,14,03,07,15.40
2012,08,14,03,08,15.30
2012,08,14,03,09,15.30
2012,08,14,03,10,15.30
2012,08,14,03,11,15.30
2012,08,14,03,12,15.30
2012,08,14,03,13,15.30
2012,08,14,03,14,15.20
2012,08,14,03,15,15.20
2012,08,14,03,16,15.20
2012,08,14,03,17,15.20
2012,08,14,03,18,15.20
2012,08,14,03,19,15.20
2012,08,14,03,20,15.10
2012,08,14,03,21,15.10
2012,08,14,03,22,15.10
2012,08,14,03,23,15.10
2012,08,14,03,24,15.10
2012,08,14,03,25,15.00
2012,08,14,03,26,15.00
2012,08,14,03,27,14.90
2012,08,14,03,28,14.90
2012,08,14,03,29,14.90
2012,08,14,03,30,14.90
2012,08,14,03,31,14.90
2012,08,14,03,32,14.80
2012,08,14,03,33,14.80
2012,08,14,03,34,14.80
2012,08,14,03,35,14.80
2012,08,14,03,36,14.80
2012,08,14,03,37,14.70
2012,08,14,03,38,14.70
2012,08,14,03,39,14.70
2012,08,14,03,40,14.70
2012,08,14,03,41,14.60
2012,08,14,03,42,14.60
2012,08,14,03,43,14.60
2012,08,14,03,44,14.60
2012,08,14,03,45,14.60
2012,08,14,03,46,14.60
2012,08,14,03,47,14.60
2012,08,14,03,48,14.50
2012,08,14,03,49,14.50
2012,08,14,03,50,14.50
2012,08,14,03,51,14.50
2012,08,14,03,52,14.50
2012,08,14,03,53,14.50
2012,08,14,03,54,14.50
2012,08,14,03,55,14.40
2012,08,14,03,56,14.40
2012,08,14,03,57,14.40
2012,08,14,03,58,14.40
2012,08,14,03,59,14.40
2012,08,14,04,00,14.40
2012,08,14,04,01,14.40
2012,08,14,04,02,14.40
2012,08,14,04,03,14.40
2012,08,14,04,04,14.40
2012,08,14,04,05,14.40
2012,08,14,04,06,14.40
2012,08,14,04,07,14.40
2012,08,14,04,08,14.40
2012,08,14,04,09,14.40
2012,08,14,04,10,14.30
2012,08,14,04,11,14.30
2012,08,14,04,12,14.30
2012,08,14,04,13,14.30
2012,08,14,04,14,14.30
2012,08,14,04,15,14.30
2012,08,14,04,16,14.30
2012,08,14,04,17,14.30
2012,08,14,04,18,14.30
2012,08,14,04,19,14.20
2012,08,14,04,20,14.20
2012,08,14,04,21,14.20
2012,08,14,04,22,14.20
2012,08,14,04,23,14.20
2012,08,14,04,24,14.20
2012,08,14,04,25,14.20
2012,08,14,04,26,14.20
2012,08,14,04,27,14.20
2012,08,14,04,28,14.20
2012,08,14,04,29,14.20
2012,08,14,04,30,14.20
2012,08,14,04,31,14.20
2012,08,14,04,32,14.20
2012,08,14,04,33,14.20
2012,08,14,04,34,14.20
2012,08,14,04,35,14.30
2012,08,14,04,36,14.30
2012,08,14,04,37,14.30
2012,08,14,04,38,14.30
2012,08,14,04,39,14.30
2012,08,14,04,40,14.30
2012,08,14,04,41,14.30
2012,08,14,04,42,14.40
2012,08,14,04,43,14.30
2012,08,14,04,44,14.40
2012,08,14,04,45,14.30
2012,08,14,04,46,14.40
2012,08,14,04,47,14.30
2012,08,14,04,48,14.40
2012,08,14,04,49,14.40
2012,08,14,04,50,14.40
2012,08,14,04,51,14.40
2012,08,14,04,52,14.40
2012,08,14,04,53,14.40
2012,08,14,04,54,14.40
2012,08,14,04,55,14.40
2012,08,14,04,56,14.40
2012,08,14,04,57,14.40
2012,08,14,04,58,14.40
2012,08,14,04,59,14.40
2012,08,14,05,00,14.40
2012,08,14,05,01,14.30
2012,08,14,05,02,14.30
2012,08,14,05,03,14.30
2012,08,14,05,04,14.30
2012,08,14,05,05,14.30
2012,08,14,05,06,14.30
2012,08,14,05,07,14.30
2012,08,14,05,08,14.30
2012,08,14,05,09,14.30
2012,08,14,05,10,14.30
2012,08,14,05,11,14.30
2012,08,14,05,12,14.30
2012,08,14,05,13,14.30
2012,08,14,05,14,14.30
2012,08,14,05,15,14.30
2012,08,14,05,16,14.30
2012,08,14,05,17,14.30
2012,08,14,05,18,14.30
2012,08,14,05,19,14.30
2012,08,14,05,20,14.30
2012,08,14,05,21,14.30
2012,08,14,05,22,14.30
2012,08,14,05,23,14.30
2012,08,14,05,24,14.30
2012,08,14,05,25,14.30
2012,08,14,05,26,14.20
2012,08,14,05,27,14.20
2012,08,14,05,28,14.20
2012,08,14,05,29,14.20
2012,08,14,05,30,14.20
2012,08,14,05,31,14.20
2012,08,14,05,32,14.20
2012,08,14,05,33,14.20
2012,08,14,05,34,14.20
2012,08,14,05,35,14.20
2012,08,14,05,36,14.20
2012,08,14,05,37,14.20
2012,08,14,05,38,14.20
2012,08,14,05,39,14.20
2012,08,14,05,40,14.20
2012,08,14,05,41,14.20
2012,08,14,05,42,14.20
2012,08,14,05,43,14.20
2012,08,14,05,44,14.20
2012,08,14,05,45,14.10
2012,08,14,05,46,14.10
2012,08,14,05,47,14.10
2012,08,14,05,48,14.10
2012,08,14,05,49,14.10
2012,08,14,05,50,14.10
2012,08,14,05,51,14.10
2012,08,14,05,52,14.10
2012,08,14,05,53,14.10
2012,08,14,05,54,14.10
2012,08,14,05,55,14.00
2012,08,14,05,56,14.00
2012,08,14,05,57,14.00
2012,08,14,05,58,14.00
2012,08,14,05,59,14.00
2012,08,14,06,00,14.00
2012,08,14,06,01,14.00
2012,08,14,06,02,14.00
2012,08,14,06,03,14.00
2012,08,14,06,04,13.90
2012,08,14,06,05,13.90
2012,08,14,06,06,13.90
2012,08,14,06,07,13.90
2012,08,14,06,08,13.90
2012,08,14,06,09,13.90
2012,08,14,06,10,13.90
2012,08,14,06,11,13.90
2012,08,14,06,12,13.80
2012,08,14,06,13,13.80
2012,08,14,06,14,13.80
2012,08,14,06,15,13.80
2012,08,14,06,16,13.80
2012,08,14,06,17,13.80
2012,08,14,06,18,13.80
2012,08,14,06,19,13.80
2012,08,14,06,20,13.80
2012,08,14,06,21,13.80
2012,08,14,06,22,13.80
2012,08,14,06,23,13.80
2012,08,14,06,24,13.80
2012,08,14,06,25,13.80
2012,08,14,06,26,13.80
2012,08,14,06,27,13.80
2012,08,14,06,28,13.80
2012,08,14,06,29,13.80
2012,08,14,06,30,13.80
2012,08,14,06,31,13.80
2012,08,14,06,32,13.70
2012,08,14,06,33,13.80
2012,08,14,06,34,13.80
2012,08,14,06,35,13.80
2012,08,14,06,36,13.80
2012,08,14,06,37,13.70
2012,08,14,06,38,13.80
2012,08,14,06,39,13.80
2012,08,14,06,40,13.80
2012,08,14,06,41,13.80
2012,08,14,06,42,13.70
2012,08,14,06,43,13.70
2012,08,14,06,44,13.70
2012,08,14,06,45,13.70
2012,08,14,06,46,13.70
2012,08,14,06,47,13.70
2012,08,14,06,48,13.70
2012,08,14,06,49,13.70
2012,08,14,06,50,13.70
2012,08,14,06,51,13.70
2012,08,14,06,52,13.70
2012,08,14,06,53,13.70
2012,08,14,06,54,13.70
2012,08,14,06,55,13.70
2012,08,14,06,56,13.80
2012,08,14,06,57,13.80
2012,08,14,06,58,13.80
2012,08,14,06,59,13.80
2012,08,14,07,00,13.80
2012,08,14,07,01,13.80
2012,08,14,07,02,13.80
2012,08,14,07,03,13.80
2012,08,14,07,04,13.80
2012,08,14,07,05,13.80
2012,08,14,07,06,13.80
2012,08,14,07,07,13.80
2012,08,14,07,08,13.80
2012,08,14,07,09,13.80
2012,08,14,07,10,13.80
2012,08,14,07,11,13.80
2012,08,14,07,12,13.80
2012,08,14,07,13,13.90
2012,08,14,07,14,13.90
2012,08,14,07,15,13.90
2012,08,14,07,16,13.90
2012,08,14,07,17,13.90
2012,08,14,07,18,13.90
2012,08,14,07,19,13.90
2012,08,14,07,20,13.90
2012,08,14,07,21,14.00
2012,08,14,07,22,14.00
2012,08,14,07,23,14.00
2012,08,14,07,24,14.00
2012,08,14,07,25,14.00
2012,08,14,07,26,14.00
2012,08,14,07,27,14.10
2012,08,14,07,28,14.10
2012,08,14,07,29,14.10
2012,08,14,07,30,14.10
2012,08,14,07,31,14.10
2012,08,14,07,32,14.10
2012,08,14,07,33,14.10
2012,08,14,07,34,14.20
2012,08,14,07,35,14.20
2012,08,14,07,36,14.20
2012,08,14,07,37,14.20
2012,08,14,07,38,14.20
2012,08,14,07,39,14.20
2012,08,14,07,40,14.20
2012,08,14,07,41,14.30
2012,08,14,07,42,14.30
2012,08,14,07,43,14.30
2012,08,14,07,44,14.40
2012,08,14,07,45,14.40
2012,08,14,07,46,14.50
2012,08,14,07,47,14.60
2012,08,14,07,48,14.60
2012,08,14,07,49,14.70
2012,08,14,07,50,14.70
2012,08,14,07,51,14.80
2012,08,14,07,52,14.90
2012,08,14,07,53,15.00
2012,08,14,07,54,15.00
2012,08,14,07,55,15.10
2012,08,14,07,56,15.20
2012,08,14,07,57,15.20
2012,08,14,07,58,15.30
2012,08,14,07,59,15.40
2012,08,14,08,00,15.40
2012,08,14,08,01,15.50
2012,08,14,08,02,15.50
2012,08,14,08,03,15.60
2012,08,14,08,04,15.70
2012,08,14,08,05,15.70
2012,08,14,08,06,15.80
2012,08,14,08,07,15.80
2012,08,14,08,08,15.80
2012,08,14,08,09,15.90
2012,08,14,08,10,16.00
2012,08,14,08,11,16.00
2012,08,14,08,12,16.10
2012,08,14,08,13,16.10
2012,08,14,08,14,16.20
2012,08,14,08,15,16.20
2012,08,14,08,16,16.20
2012,08,14,08,17,16.30
2012,08,14,08,18,16.30
2012,08,14,08,19,16.30
2012,08,14,08,20,16.40
2012,08,14,08,21,16.40
2012,08,14,08,22,16.40
2012,08,14,08,23,16.50
2012,08,14,08,24,16.50
2012,08,14,08,25,16.60
2012,08,14,08,26,16.60
2012,08,14,08,27,16.60
2012,08,14,08,28,16.70
2012,08,14,08,29,16.70
2012,08,14,08,30,16.80
2012,08,14,08,31,16.80
2012,08,14,08,32,16.80
2012,08,14,08,33,16.90
2012,08,14,08,34,16.90
2012,08,14,08,35,16.90
2012,08,14,08,36,17.00
2012,08,14,08,37,17.00
2012,08,14,08,38,17.10
2012,08,14,08,39,17.10
2012,08,14,08,40,17.10
2012,08,14,08,41,17.20
2012,08,14,08,42,17.20
2012,08,14,08,43,17.20
2012,08,14,08,44,17.20
2012,08,14,08,45,17.30
2012,08,14,08,46,17.30
2012,08,14,08,47,17.30
2012,08,14,08,48,17.30
2012,08,14,08,49,17.30
2012,08,14,08,50,17.30
2012,08,14,08,51,17.40
2012,08,14,08,52,17.40
2012,08,14,08,53,17.40
2012,08,14,08,54,17.40
2012,08,14,08,55,17.50
2012,08,14,08,56,17.50
2012,08,14,08,57,17.60
2012,08,14,08,58,17.60
2012,08,14,08,59,17.60
2012,08,14,09,00,17.60
2012,08,14,09,01,17.60
2012,08,14,09,02,17.70
2012,08,14,09,03,17.70
2012,08,14,09,04,17.70
2012,08,14,09,05,17.70
2012,08,14,09,06,17.80
2012,08,14,09,07,17.80
2012,08,14,09,08,17.80
2012,08,14,09,09,17.80
2012,08,14,09,10,17.90
2012,08,14,09,11,17.90
2012,08,14,09,12,17.90
2012,08,14,09,13,17.90
2012,08,14,09,14,17.90
2012,08,14,09,15,17.90
2012,08,14,09,16,17.90
2012,08,14,09,17,17.90
2012,08,14,09,18,17.90
2012,08,14,09,19,17.90
2012,08,14,09,20,17.90
2012,08,14,09,21,17.90
2012,08,14,09,22,17.90
2012,08,14,09,23,17.90
2012,08,14,09,24,17.90
2012,08,14,09,25,17.80
2012,08,14,09,26,17.80
2012,08,14,09,27,17.80
2012,08,14,09,28,17.80
2012,08,14,09,29,17.80
2012,08,14,09,30,17.80
2012,08,14,09,31,17.80
2012,08,14,09,32,17.80
2012,08,14,09,33,17.80
2012,08,14,09,34,17.80
2012,08,14,09,35,17.80
2012,08,14,09,36,17.80
2012,08,14,09,37,17.90
2012,08,14,09,38,17.90
2012,08,14,09,39,17.90
2012,08,14,09,40,17.90
2012,08,14,09,41,17.90
2012,08,14,09,42,17.90
2012,08,14,09,43,17.90
2012,08,14,09,44,17.90
2012,08,14,09,45,17.90
2012,08,14,09,46,17.90
2012,08,14,09,47,18.00
2012,08,14,09,48,18.00
2012,08,14,09,49,18.10
2012,08,14,09,50,18.10
2012,08,14,09,51,18.10
2012,08,14,09,52,18.10
2012,08,14,09,53,18.20
2012,08,14,09,54,18.20
2012,08,14,09,55,18.20
2012,08,14,09,56,18.20
2012,08,14,09,57,18.30
2012,08,14,09,58,18.30
2012,08,14,09,59,18.30
2012,08,14,10,00,18.30
2012,08,14,10,01,18.40
2012,08,14,10,02,18.40
2012,08,14,10,03,18.40
2012,08,14,10,04,18.50
2012,08,14,10,05,18.50
2012,08,14,10,06,18.60
2012,08,14,10,07,18.60
2012,08,14,10,08,18.70
2012,08,14,10,09,18.80
2012,08,14,10,10,18.80
2012,08,14,10,11,18.90
2012,08,14,10,12,18.90
2012,08,14,10,13,19.00
2012,08,14,10,14,19.00
2012,08,14,10,15,19.10
2012,08,14,10,16,19.10
2012,08,14,10,17,19.10
2012,08,14,10,18,19.20
2012,08,14,10,19,19.20
2012,08,14,10,20,19.20
2012,08,14,10,21,19.30
2012,08,14,10,22,19.30
2012,08,14,10,23,19.40
2012,08,14,10,24,19.40
2012,08,14,10,25,19.50
2012,08,14,10,26,19.50
2012,08,14,10,27,19.60
2012,08,14,10,28,19.70
2012,08,14,10,29,19.70
2012,08,14,10,30,19.80
2012,08,14,10,31,19.80
2012,08,14,10,32,19.90
2012,08,14,10,33,19.90
2012,08,14,10,34,20.00
2012,08,14,10,35,20.10
2012,08,14,10,36,20.20
2012,08,14,10,37,20.20
2012,08,14,10,38,20.30
2012,08,14,10,39,20.40
2012,08,14,10,40,20.40
2012,08,14,10,41,20.50
2012,08,14,10,42,20.50
2012,08,14,10,43,20.60
2012,08,14,10,44,20.70
2012,08,14,10,45,20.70
2012,08,14,10,46,20.80
2012,08,14,10,47,20.80
2012,08,14,10,48,20.90
2012,08,14,10,49,20.90
2012,08,14,10,50,20.90
2012,08,14,10,51,20.90
2012,08,14,10,52,21.00
2012,08,14,10,53,21.00
2012,08,14,10,54,21.00
2012,08,14,10,55,20.90
2012,08,14,10,56,20.90
2012,08,14,10,57,20.90
2012,08,14,10,58,20.90
2012,08,14,10,59,21.00
2012,08,14,11,00,21.00
2012,08,14,11,01,21.10
2012,08,14,11,02,21.10
2012,08,14,11,03,21.10
2012,08,14,11,04,21.20
2012,08,14,11,05,21.30
2012,08,14,11,06,21.30
2012,08,14,11,07,21.30
2012,08,14,11,08,21.40
2012,08,14,11,09,21.40
2012,08,14,11,10,21.50
2012,08,14,11,11,21.60
2012,08,14,11,12,21.60
2012,08,14,11,13,21.70
2012,08,14,11,14,21.70
2012,08,14,11,15,21.60
2012,08,14,11,16,21.70
2012,08,14,11,17,21.70
2012,08,14,11,18,21.70
2012,08,14,11,19,21.70
2012,08,14,11,20,21.70
2012,08,14,11,21,21.60
2012,08,14,11,22,21.60
2012,08,14,11,23,21.50
2012,08,14,11,24,21.50
2012,08,14,11,25,21.50
2012,08,14,11,26,21.50
2012,08,14,11,27,21.50
2012,08,14,11,28,21.60
2012,08,14,11,29,21.60
2012,08,14,11,30,21.60
2012,08,14,11,31,21.60
2012,08,14,11,32,21.60
2012,08,14,11,33,21.50
2012,08,14,11,34,21.50
2012,08,14,11,35,21.50
2012,08,14,11,36,21.40
2012,08,14,11,37,21.40
2012,08,14,11,38,21.30
2012,08,14,11,39,21.30
2012,08,14,11,40,21.30
2012,08,14,11,41,21.40
2012,08,14,11,42,21.40
2012,08,14,11,43,21.40
2012,08,14,11,44,21.40
2012,08,14,11,45,21.30
2012,08,14,11,46,21.30
2012,08,14,11,47,21.20
2012,08,14,11,48,21.10
2012,08,14,11,49,21.10
2012,08,14,11,50,21.10
2012,08,14,11,51,21.10
2012,08,14,11,52,21.10
2012,08,14,11,53,21.10
2012,08,14,11,54,21.20
2012,08,14,11,55,21.20
2012,08,14,11,56,21.30
2012,08,14,11,57,21.30
2012,08,14,11,58,21.30
2012,08,14,11,59,21.40
2012,08,14,12,00,21.40
2012,08,14,12,01,21.50
2012,08,14,12,02,21.60
2012,08,14,12,03,21.60
2012,08,14,12,04,21.70
2012,08,14,12,05,21.70
2012,08,14,12,06,21.70
2012,08,14,12,07,21.80
2012,08,14,12,08,21.80
2012,08,14,12,09,21.80
2012,08,14,12,10,21.90
2012,08,14,12,11,21.90
2012,08,14,12,12,22.00
2012,08,14,12,13,22.00
2012,08,14,12,14,22.10
2012,08,14,12,15,22.10
2012,08,14,12,16,22.10
2012,08,14,12,17,22.10
2012,08,14,12,18,22.10
2012,08,14,12,19,22.10
2012,08,14,12,20,22.10
2012,08,14,12,21,22.10
2012,08,14,12,22,22.10
2012,08,14,12,23,22.10
2012,08,14,12,24,22.20
2012,08,14,12,25,22.20
2012,08,14,12,26,22.20
2012,08,14,12,27,22.20
2012,08,14,12,28,22.20
2012,08,14,12,29,22.20
2012,08,14,12,30,22.10
2012,08,14,12,31,22.10
2012,08,14,12,32,22.20
2012,08,14,12,33,22.20
2012,08,14,12,34,22.10
2012,08,14,12,35,22.10
2012,08,14,12,36,22.10
2012,08,14,12,37,22.20
2012,08,14,12,38,22.10
2012,08,14,12,39,22.10
2012,08,14,12,40,22.10
2012,08,14,12,41,22.10
2012,08,14,12,42,22.20
2012,08,14,12,43,22.20
2012,08,14,12,44,22.30
2012,08,14,12,45,22.30
2012,08,14,12,46,22.30
2012,08,14,12,47,22.20
2012,08,14,12,48,22.20
2012,08,14,12,49,22.10
2012,08,14,12,50,22.10
2012,08,14,12,51,22.00
2012,08,14,12,52,21.90
2012,08,14,12,53,21.90
2012,08,14,12,54,21.80
2012,08,14,12,55,21.70
2012,08,14,12,56,21.70
2012,08,14,12,57,21.70
2012,08,14,12,58,21.60
2012,08,14,12,59,21.60
2012,08,14,13,00,21.60
2012,08,14,13,01,21.60
2012,08,14,13,02,21.60
2012,08,14,13,03,21.60
2012,08,14,13,04,21.60
2012,08,14,13,05,21.50
2012,08,14,13,06,21.50
2012,08,14,13,07,21.40
2012,08,14,13,08,21.30
2012,08,14,13,09,21.20
2012,08,14,13,10,21.10
2012,08,14,13,11,21.10
2012,08,14,13,12,21.10
2012,08,14,13,13,21.10
2012,08,14,13,14,21.10
2012,08,14,13,15,21.10
2012,08,14,13,16,21.10
2012,08,14,13,17,21.10
2012,08,14,13,18,21.20
2012,08,14,13,19,21.30
2012,08,14,13,20,21.30
2012,08,14,13,21,21.40
2012,08,14,13,22,21.40
2012,08,14,13,23,21.40
2012,08,14,13,24,21.50
2012,08,14,13,25,21.60
2012,08,14,13,26,21.60
2012,08,14,13,27,21.70
2012,08,14,13,28,21.80
2012,08,14,13,29,21.80
2012,08,14,13,30,21.90
2012,08,14,13,31,21.90
2012,08,14,13,32,21.90
2012,08,14,13,33,21.80
2012,08,14,13,34,21.80
2012,08,14,13,35,21.80
2012,08,14,13,36,21.90
2012,08,14,13,37,21.90
2012,08,14,13,38,21.90
2012,08,14,13,39,21.90
2012,08,14,13,40,21.90
2012,08,14,13,41,21.90
2012,08,14,13,42,21.90
2012,08,14,13,43,21.90
2012,08,14,13,44,21.90
2012,08,14,13,45,21.90
2012,08,14,13,46,21.90
2012,08,14,13,47,22.00
2012,08,14,13,48,22.10
2012,08,14,13,49,22.20
2012,08,14,13,50,22.30
2012,08,14,13,51,22.40
2012,08,14,13,52,22.50
2012,08,14,13,53,22.50
2012,08,14,13,54,22.50
2012,08,14,13,55,22.60
2012,08,14,13,56,22.60
2012,08,14,13,57,22.60
2012,08,14,13,58,22.70
2012,08,14,13,59,22.70
2012,08,14,14,00,22.80
2012,08,14,14,01,22.90
2012,08,14,14,02,23.00
2012,08,14,14,03,23.00
2012,08,14,14,04,23.00
2012,08,14,14,05,22.90
2012,08,14,14,06,22.90
2012,08,14,14,07,22.90
2012,08,14,14,08,22.90
2012,08,14,14,09,22.80
2012,08,14,14,10,22.80
2012,08,14,14,11,22.80
2012,08,14,14,12,22.80
2012,08,14,14,13,22.80
2012,08,14,14,14,22.80
2012,08,14,14,15,22.80
2012,08,14,14,16,22.80
2012,08,14,14,17,22.90
2012,08,14,14,18,22.90
2012,08,14,14,19,22.80
2012,08,14,14,20,22.80
2012,08,14,14,21,22.80
2012,08,14,14,22,22.80
2012,08,14,14,23,22.80
2012,08,14,14,24,22.80
2012,08,14,14,25,22.80
2012,08,14,14,26,22.70
2012,08,14,14,27,22.60
2012,08,14,14,28,22.50
2012,08,14,14,29,22.50
2012,08,14,14,30,22.40
2012,08,14,14,31,22.40
2012,08,14,14,32,22.30
2012,08,14,14,33,22.30
2012,08,14,14,34,22.30
2012,08,14,14,35,22.30
2012,08,14,14,36,22.30
2012,08,14,14,37,22.30
2012,08,14,14,38,22.30
2012,08,14,14,39,22.30
2012,08,14,14,40,22.30
2012,08,14,14,41,22.30
2012,08,14,14,42,22.30
2012,08,14,14,43,22.30
2012,08,14,14,44,22.30
2012,08,14,14,45,22.30
2012,08,14,14,46,22.30
2012,08,14,14,47,22.30
2012,08,14,14,48,22.30
2012,08,14,14,49,22.30
2012,08,14,14,50,22.20
2012,08,14,14,51,22.20
2012,08,14,14,52,22.20
2012,08,14,14,53,22.20
2012,08,14,14,54,22.20
2012,08,14,14,55,22.10
2012,08,14,14,56,22.10
2012,08,14,14,57,22.10
2012,08,14,14,58,22.20
2012,08,14,14,59,22.20
2012,08,14,15,00,22.20
2012,08,14,15,01,22.30
2012,08,14,15,02,22.30
2012,08,14,15,03,22.30
2012,08,14,15,04,22.30
2012,08,14,15,05,22.30
2012,08,14,15,06,22.30
2012,08,14,15,07,22.40
2012,08,14,15,08,22.40
2012,08,14,15,09,22.40
2012,08,14,15,10,22.40
2012,08,14,15,11,22.40
2012,08,14,15,12,22.50
2012,08,14,15,13,22.50
2012,08,14,15,14,22.50
2012,08,14,15,15,22.60
2012,08,14,15,16,22.70
2012,08,14,15,17,22.80
2012,08,14,15,18,22.80
2012,08,14,15,19,22.90
2012,08,14,15,20,23.00
2012,08,14,15,21,23.10
2012,08,14,15,22,23.10
2012,08,14,15,23,23.10
2012,08,14,15,24,23.10
2012,08,14,15,25,23.20
2012,08,14,15,26,23.20
2012,08,14,15,27,23.20
2012,08,14,15,28,23.20
2012,08,14,15,29,23.20
2012,08,14,15,30,23.20
2012,08,14,15,31,23.20
2012,08,14,15,32,23.10
2012,08,14,15,33,23.10
2012,08,14,15,34,23.00
2012,08,14,15,35,23.00
2012,08,14,15,36,22.90
2012,08,14,15,37,22.90
2012,08,14,15,38,22.90
2012,08,14,15,39,23.00
2012,08,14,15,40,23.00
2012,08,14,15,41,23.10
2012,08,14,15,42,23.20
2012,08,14,15,43,23.30
2012,08,14,15,44,23.40
2012,08,14,15,45,23.50
2012,08,14,15,46,23.50
2012,08,14,15,47,23.60
2012,08,14,15,48,23.70
2012,08,14,15,49,23.70
2012,08,14,15,50,23.70
2012,08,14,15,51,23.70
2012,08,14,15,52,23.70
2012,08,14,15,53,23.60
2012,08,14,15,54,23.60
2012,08,14,15,55,23.60
2012,08,14,15,56,23.60
2012,08,14,15,57,23.60
2012,08,14,15,58,23.50
2012,08,14,15,59,23.50
2012,08,14,16,00,23.50
2012,08,14,16,01,23.40
2012,08,14,16,02,23.40
2012,08,14,16,03,23.40
2012,08,14,16,04,23.40
2012,08,14,16,05,23.40
2012,08,14,16,06,23.50
2012,08,14,16,07,23.50
2012,08,14,16,08,23.50
2012,08,14,16,09,23.60
2012,08,14,16,10,23.60
2012,08,14,16,11,23.60
2012,08,14,16,12,23.60
2012,08,14,16,13,23.70
2012,08,14,16,14,23.80
2012,08,14,16,15,23.80
2012,08,14,16,16,23.80
2012,08,14,16,17,23.70
2012,08,14,16,18,23.70
2012,08,14,16,19,23.70
2012,08,14,16,20,23.70
2012,08,14,16,21,23.70
2012,08,14,16,22,23.60
2012,08,14,16,23,23.60
2012,08,14,16,24,23.50
2012,08,14,16,25,23.50
2012,08,14,16,26,23.40
2012,08,14,16,27,23.40
2012,08,14,16,28,23.40
2012,08,14,16,29,23.50
2012,08,14,16,30,23.50
2012,08,14,16,31,23.50
2012,08,14,16,32,23.60
2012,08,14,16,33,23.60
2012,08,14,16,34,23.70
2012,08,14,16,35,23.70
2012,08,14,16,36,23.70
2012,08,14,16,37,23.70
2012,08,14,16,38,23.70
2012,08,14,16,39,23.60
2012,08,14,16,40,23.60
2012,08,14,16,41,23.60
2012,08,14,16,42,23.70
2012,08,14,16,43,23.70
2012,08,14,16,44,23.80
2012,08,14,16,45,23.80
2012,08,14,16,46,23.80
2012,08,14,16,47,23.90
2012,08,14,16,48,23.90
2012,08,14,16,49,23.80
2012,08,14,16,50,23.80
2012,08,14,16,51,23.80
2012,08,14,16,52,23.80
2012,08,14,16,53,23.90
2012,08,14,16,54,23.90
2012,08,14,16,55,23.90
2012,08,14,16,56,23.90
2012,08,14,16,57,23.90
2012,08,14,16,58,23.80
2012,08,14,16,59,23.80
2012,08,14,17,00,23.70
2012,08,14,17,01,23.60
2012,08,14,17,02,23.50
2012,08,14,17,03,23.50
2012,08,14,17,04,23.50
2012,08,14,17,05,23.50
2012,08,14,17,06,23.60
2012,08,14,17,07,23.60
2012,08,14,17,08,23.60
2012,08,14,17,09,23.70
2012,08,14,17,10,23.70
2012,08,14,17,11,23.70
2012,08,14,17,12,23.70
2012,08,14,17,13,23.70
2012,08,14,17,14,23.70
2012,08,14,17,15,23.80
2012,08,14,17,16,23.80
2012,08,14,17,17,23.80
2012,08,14,17,18,23.90
2012,08,14,17,19,23.80